Вернуться в каталог

STARLINK-4047

АктивенСвязьVLEO
NORAD 53243·PAYLOAD·🇺🇸 United States

Запущен Jul 24, 2022 с Cape Canaveral Space Force Station

Loading…

Ближайшие Пролёты (ближайшие 24 часа)

TLE

СвежийSource: CelesTrak SupGP

Эпоха: Sep 15, 2026, 02:38 UTC

1 53243C 22086B   26258.11020833 -.00033434  00000+0 -95579-3 0  2580
2 53243  53.1597  61.5282 0001314  73.9085 269.7133 15.35440543    10

Отслеживайте STARLINK-4047 в реальном времени с AllMySat

Download on the App Store